TELSTAR 18V (APSTAR 5C) (43611 NORAD) Tracking and Keplerian Element Data
This shows tracking and keplerian element data for the satellite.
Feedback or suggestion? Click here.
Element | Value |
Catalog | 43611 |
Name | TELSTAR 18V (APSTAR 5C) |
Epoch Orbit | 882 |
Epoch Day | 21.01005903 |
Epoch Year | 2021 |
RAAN | 65.9114 |
Inclination | 0.0231 |
Eccentricity | 0.0002198 |
Argument of Perigee | 239.7961 |
Mean Anonmoly | 316.5085 |
Mean Motion | 1.00268587 |
Decay Rate | -2.85E-06 |
L1 | 1 43611U 18069A 21021.01005903 -.00000285 00000-0 00000+0 0 9998 |
L2 | 2 43611 0.0231 65.9114 0002198 239.7961 316.5085 1.00268587 8829 |
Live tracking and technical data element details for TELSTAR 18V (APSTAR 5C) (NORAD 43611). TELSTAR 18V (APSTAR 5C) can be tracked NOW for your location showing map with azimuth and elevation plus other details from your city location.
Track the satellite on the map from your city or location and see movement details for azimuth, elevation, latitude, longitude, range, height, and movement on the map or in text.
IsCatalogInMostPopularTable: catalog: 43611, numindb: 589
Update: records affected: 1
GetName: 43611 TELSTAR 18V (APSTAR 5C)
Hit Count: updated at: Sat, 23 Jan 2021 04:08:13 GMT